Location: Unspecified
(41.9031°N, 12.4386°E)
Time: 17:55:08
(UTC+02:00)

ISS - Pass Details

Date: 30 May 2020
Orbit: 417 x 420 km, 51.6° (Epoch: 26 May)

Event Time Altitude Azimuth Distance (km) Brightness Sun altitude
Rises 23:11:42 0° 298° (WNW) 2,365 1.0 -20.7°
Reaches altitude 10° 23:13:54 10° 289° (WNW) 1,498 -0.3 -20.9°
Enters shadow 23:16:11 29° 253° (WSW) 801 -2.3 -21.1°
